Regional Weather Roundup
Issued by NWS

Home | Current Version | Previous Version | Graphics & Text | Print | Product List | Glossary On
Versions: 1 2 3 4 5 6 7 8 9 10 11 12 13 14 15 16 17 18 19 20 21 22 23 24 25 26 27 28 29 30 31 32 33 34 35 36 37 38 39 40 41 42 43 44 45 46 47 48 49 50
000
ASUS43 KMKX 222100
RWRWI

WISCONSIN REGIONAL WEATHER ROUNDUP
NATIONAL WEATHER SERVICE MILWAUKEE/SULLIVAN WI
400 PM CDT SUN OCT 22 2017

NOTE: "FAIR" INDICATES FEW OR NO CLOUDS BELOW 12,000 FEET WITH NO
SIGNIFICANT WEATHER AND/OR OBSTRUCTIONS TO VISIBILITY.

WIZ001-002-006>008-014>016-023>028-222200-
NORTHWEST WISCONSIN

CITY           SKY/WX    TMP DP  RH WIND       PRES   REMARKS
SUPERIOR ARPT  SUNNY     61  32  33 W15G23    29.86F
ASHLAND        CLOUDY    60  35  39 SW13G18   29.89S
HAYWARD        CLOUDY    58  32  37 SW12      29.92S
SIREN          SUNNY     61  29  30 W12G18    29.92S
CUMBERLAND     MOSUNNY   59  32  36 W15       29.94S
RICE LAKE      MOSUNNY   60  31  33 W9G18     29.96R
CHETEK         MOSUNNY   60  36  40 W9        29.95S
LADYSMITH      CLOUDY    54  40  60 SW6       29.96F
EAU CLAIRE     NOT AVBL
MENOMONIE      MOSUNNY   61  33  35 SW12G18   29.97S
NEW RICHMOND   SUNNY     61  31  31 W13       29.95S
OSCEOLA        SUNNY     62  32  32 SW10G16   29.97S
$$

WIZ003>005-009-010-017-018-222200-
NORTH CENTRAL WISCONSIN

CITY           SKY/WX    TMP DP  RH WIND       PRES   REMARKS
MANITOWISH WTR CLOUDY    48  43  81 SW6       29.91S
ARBOR VITAE    CLOUDY    52  44  75 SW5       29.92S
WOODRUFF       CLOUDY    52  44  75 SW5       29.92S
RHINELANDER    CLOUDY    49  43  80 W6        29.95S
EAGLE RIVER    NOT AVBL
LAND O LAKES   CLOUDY    49  41  73 W6        29.94R
PHILLIPS       SUNNY     50  40  69 SW5       29.93S
TOMAHAWK       CLOUDY    48  41  76 SW3       29.96R
MEDFORD        CLOUDY    49  39  68 W7        29.96R
MERRILL        CLOUDY    51  43  76 W5        29.97S
$$

WIZ029-030-035-036-043>047-222200-
CENTRAL WISCONSIN

CITY           SKY/WX    TMP DP  RH WIND       PRES   REMARKS
WAUSAU         CLOUDY    51  43  74 SW5       29.96S
MOSINEE        PTSUNNY   50  45  81 SW3       29.98F
MARSHFIELD     CLOUDY    50  43  77 SW6       29.98R
STEVENS POINT  LGT RAIN  48  48  98 SW6       30.01R
WAUPACA        LGT RAIN  52  49  89 CALM      30.00R
WAUTOMA        LGT RAIN N/A N/A N/A SW3       30.01S
WISC RAPIDS    CLOUDY    51  48  89 SW7       30.00S
CAMP DOUGLAS   NOT AVBL
$$

WIZ011>013-019>022-031-037>040-048>050-222200-
NORTHEAST WISCONSIN

CITY           SKY/WX    TMP DP  RH WIND       PRES   REMARKS
ANTIGO         DRIZZLE   47  46  94 SW5       29.96F
SHAWANO        DRIZZLE   51  47  86 W5        29.99R
OCONTO         CLOUDY    51  49  93 W3        29.98R
STURGEON BAY   LGT RAIN  52  49  89 CALM      29.98R
GREEN BAY      LGT RAIN  52  52 100 W5        29.99R
MANITOWOC      NOT AVBL
APPLETON       LGT RAIN  52  48  87 W7        29.99R
CLINTONVILLE   NOT AVBL
OSHKOSH        LGT RAIN  51  49  92 NW5       30.00R
$$

WIZ032>034-041-042-053>061-222200-
SOUTHWEST WISCONSIN

CITY           SKY/WX    TMP DP  RH WIND       PRES   REMARKS
LA CROSSE      CLOUDY    56  45  66 S5        30.01R
SPARTA         CLOUDY    53  46  78 SW3       30.02S
VIROQUA        CLOUDY    52  46  82 W3        30.02R
BOSCOBEL       CLOUDY    55  47  74 VRB3      30.03S
PRAIRIE DU CHI CLOUDY    55  43  63 CALM      30.03S
PLATTEVILLE    CLOUDY    53  50  90 NW6       30.04R
$$

WIZ056-057-062-063-064-067-068-222200-
SOUTH CENTRAL WISCONSIN

CITY           SKY/WX    TMP DP  RH WIND       PRES   REMARKS
REEDSBURG      DRIZZLE   50  48  92 CALM      30.02R
BARABOO/DELLS  LGT RAIN  50  46  88 W3        30.02S
LONE ROCK      CLOUDY    53  49  86 W5        30.02S
MINERAL POINT  LGT RAIN  52  50  93 NW3       30.04R
MADISON        LGT RAIN  51  48  89 NW3       30.01S
MIDDLETON      CLOUDY    52  48  86 NW5       30.02S
WATERTOWN      LGT RAIN  51  51 100 CALM      30.02R
MONROE         DRIZZLE   50  46  87 CALM      30.03R
JANESVILLE     LGT RAIN  52  52 100 NW5       30.01R
$$

WIZ051-052-058>065-066-070>072-222200-
SOUTHEAST WISCONSIN

CITY           SKY/WX    TMP DP  RH WIND       PRES   REMARKS
MILWAUKEE      LGT RAIN  53  51  93 N5        30.02R FOG
WAUKESHA       NOT AVBL
MILWAUKEE/TIMM RAIN      52  46  82 NW5       30.02R
RACINE         LGT RAIN  52  51  97 NW8       30.03R FOG
BURLINGTON     DRIZZLE   50  50 100 N6        30.01R
KENOSHA        LGT RAIN  52  49  89 N8        30.02R FOG
FOND DU LAC    LGT RAIN  52  47  83 NW5       30.01R
SHEBOYGAN      LGT RAIN  51  50  96 NW5       30.00R FOG
WEST BEND      LGT RAIN  50  48  93 CALM      30.00R
JUNEAU         LGT RAIN  50  49  96 CALM      30.03R
$$

LSZ147-162-222200-
LAKE SUPERIOR

STATION/POSITION TIME  TEMP    WIND        PRES    WAVE
                       AIR SEA DIR/SP/G            HT/PER
                 (UTC) (F)     (DEG/KT/KT) (MB)    (FT/S)
W MID LAKE BUOY  1950   52 52              1010.5F   5/ 6
DEVILS ISLAND    2000   54     230/ 20/ 24 1011.6R
SAXON HARBOR     2030   56     220/  6/ 10 1011.9R
$$

LMZ867-665-643>646-222200-
LAKE MICHIGAN

STATION/POSITION TIME  TEMP    WIND        PRES    WAVE
                       AIR SEA DIR/SP/G            HT/PER
                 (UTC) (F)     (DEG/KT/KT) (MB)    (FT/S)
S GREEN BAY BUOY 2030   54 58  250/  4/  8 1014.4R
N MID LAKE BUOY  1950   54 58  300/ 12/ 16 1014.1R   6/ 7
NORTHPORT PIER   2040   52     290/  6/  8 1014.6R
KEWAUNEE LAKESHO 2030   52      CALM  /  3 1014.1R
SHEBOYGAN LAKESH 2000   52     310/  8/ 10 1015.2R
PORT WASHINGTON  2030   53     320/  3/  9 1016.6R
MILWAUKEE LAKESH 2030   52     330/  6/  8   N/A
S MID LAKE BUOY  1950   63 60  190/ 12/ 14 1013.1R   3/ 5
KENOSHA   LAKESH 2000   52     340/ 19/ 23 1015.2
$$

TC  - TEMPERATURE IN CELSIUS
VSB - VISIBILITY IN STATUTE MILES
WCI - WIND CHILL INDEX
HX  - HEAT INDEX





USA.gov is the U.S. government's official web portal to all federal, state and local government web resources and services.